Time,TemperatureF,DewpointF,PressureIn,WindDirection,WindDirectionDegrees,WindSpeedMPH,WindSpeedGustMPH,Humidity,HourlyPrecipIn,Conditions,Clouds,dailyrainin,SoftwareType,DateUTC
2013-10-11 00:00:00,48.7,45.0,29.92,ENE,67,0.0,0.0,87,0.00,,,0.00,WUHU21623XXSP,2013-10-11 04:00:00,
2013-10-11 00:01:00,48.7,45.0,29.92,ENE,67,0.0,0.0,87,0.00,,,0.00,WUHU21623XXSP,2013-10-11 04:01:00,
2013-10-11 00:07:00,48.5,44.8,29.93,ENE,67,0.0,0.0,87,0.00,,,0.00,WUHU21623XXSP,2013-10-11 04:07:00,
2013-10-11 00:13:00,48.3,44.6,29.92,ENE,67,0.0,0.0,87,0.00,,,0.00,WUHU21623XXSP,2013-10-11 04:13:00,
2013-10-11 00:19:00,48.1,44.4,29.92,ENE,67,0.0,0.0,87,0.00,,,0.00,WUHU21623XXSP,2013-10-11 04:19:00,
2013-10-11 00:38:00,47.8,44.1,29.91,ENE,68,0.0,0.0,87,0.00,,,0.00,WUHU21623XXSP,2013-10-11 04:38:00,
2013-10-11 01:38:00,46.3,42.6,29.92,ENE,68,0.0,0.0,87,0.00,,,0.00,WUHU21623XXSP,2013-10-11 05:38:00,
2013-10-11 02:38:00,44.7,41.0,29.92,ENE,68,0.0,0.0,87,0.00,,,0.00,WUHU21623XXSP,2013-10-11 06:38:00,
2013-10-11 03:38:00,43.8,40.2,29.91,ENE,68,0.0,0.0,87,0.00,,,0.00,WUHU21623XXSP,2013-10-11 07:38:00,
2013-10-11 04:38:00,42.7,39.1,29.91,ENE,68,0.0,0.0,87,0.00,,,0.00,WUHU21623XXSP,2013-10-11 08:38:00,
2013-10-11 05:38:00,41.8,38.2,29.93,ENE,68,0.0,0.0,87,0.00,,,0.00,WUHU21623XXSP,2013-10-11 09:38:00,
2013-10-11 06:38:00,41.1,37.5,29.94,ENE,68,0.0,0.0,87,0.00,,,0.00,WUHU21623XXSP,2013-10-11 10:38:00,
2013-10-11 07:38:00,40.6,37.3,29.95,ENE,68,0.0,0.0,88,0.00,,,0.00,WUHU21623XXSP,2013-10-11 11:38:00,
2013-10-11 08:38:00,40.6,37.6,29.95,ENE,68,0.0,0.0,89,0.00,,,0.00,WUHU21623XXSP,2013-10-11 12:38:00,
2013-10-11 09:38:00,46.0,42.9,29.95,ENE,68,0.0,0.0,89,0.00,,,0.00,WUHU21623XXSP,2013-10-11 13:38:00,
2013-10-11 10:38:00,53.2,48.5,29.94,East,90,0.0,0.0,84,0.00,,,0.00,WUHU21623XXSP,2013-10-11 14:38:00,
2013-10-11 11:38:00,58.9,51.4,29.93,ENE,68,3.1,3.1,76,0.00,,,0.00,WUHU21623XXSP,2013-10-11 15:38:00,
2013-10-11 12:04:00,60.6,52.4,29.93,NE,45,4.3,4.3,74,0.00,,,0.00,WUHU21623XXSP,2013-10-11 16:04:00,
2013-10-11 12:15:00,60.9,52.3,29.93,ENE,67,1.6,1.6,73,0.00,,,0.00,WUHU21623XXSP,2013-10-11 16:15:00,
2013-10-11 12:20:00,61.3,52.7,29.93,ESE,112,0.0,1.6,73,0.00,,,0.00,WUHU21623XXSP,2013-10-11 16:20:00,
2013-10-11 12:25:00,61.6,53.0,29.93,NE,45,0.0,0.0,73,0.00,,,0.00,WUHU21623XXSP,2013-10-11 16:25:00,
2013-10-11 12:30:00,61.8,52.8,29.93,ESE,112,0.0,0.0,72,0.00,,,0.00,WUHU21623XXSP,2013-10-11 16:30:00,
2013-10-11 12:35:00,61.8,52.8,29.93,ENE,67,0.0,0.0,72,0.00,,,0.00,WUHU21623XXSP,2013-10-11 16:35:00,
2013-10-11 12:40:00,62.2,53.2,29.92,SE,135,0.0,0.0,72,0.00,,,0.00,WUHU21623XXSP,2013-10-11 16:40:00,
2013-10-11 12:47:00,62.5,53.1,29.93,ENE,67,0.0,0.0,71,0.00,,,0.00,WUHU21623XXSP,2013-10-11 16:47:00,
2013-10-11 12:52:00,62.5,52.7,29.93,East,90,0.0,0.0,70,0.00,,,0.00,WUHU21623XXSP,2013-10-11 16:52:00,
2013-10-11 12:57:00,62.7,52.5,29.92,East,90,0.0,0.0,69,0.00,,,0.00,WUHU21623XXSP,2013-10-11 16:57:00,
2013-10-11 13:08:00,63.1,52.5,29.91,NE,45,5.8,5.8,68,0.00,,,0.00,WUHU21623XXSP,2013-10-11 17:08:00,
2013-10-11 13:13:00,63.4,52.0,29.91,NE,45,7.8,7.8,66,0.00,,,0.00,WUHU21623XXSP,2013-10-11 17:13:00,
2013-10-11 13:23:00,63.6,51.8,29.91,NE,45,6.5,6.5,65,0.00,,,0.00,WUHU21623XXSP,2013-10-11 17:23:00,
2013-10-11 13:28:00,63.8,52.0,29.92,NE,45,0.0,6.5,65,0.00,,,0.00,WUHU21623XXSP,2013-10-11 17:28:00,
2013-10-11 13:33:00,64.0,51.7,29.91,NE,45,0.0,0.0,64,0.00,,,0.00,WUHU21623XXSP,2013-10-11 17:33:00,
2013-10-11 13:41:00,64.5,50.5,29.91,SE,135,0.0,0.0,60,0.00,,,0.00,WUHU21623XXSP,2013-10-11 17:41:00,
2013-10-11 13:46:00,64.5,50.5,29.91,SSW,202,0.0,0.0,60,0.00,,,0.00,WUHU21623XXSP,2013-10-11 17:46:00,
2013-10-11 13:51:00,64.5,50.5,29.90,NE,45,0.0,0.0,60,0.00,,,0.00,WUHU21623XXSP,2013-10-11 17:51:00,
2013-10-11 13:56:00,64.5,50.5,29.90,NE,45,0.0,0.0,60,0.00,,,0.00,WUHU21623XXSP,2013-10-11 17:56:00,
2013-10-11 14:01:00,64.9,50.8,29.90,ESE,112,0.0,0.0,60,0.00,,,0.00,WUHU21623XXSP,2013-10-11 18:01:00,
2013-10-11 14:06:00,64.9,50.8,29.90,ESE,112,1.3,1.3,60,0.00,,,0.00,WUHU21623XXSP,2013-10-11 18:06:00,
2013-10-11 14:13:00,64.9,50.4,29.89,East,90,1.6,1.6,59,0.00,,,0.00,WUHU21623XXSP,2013-10-11 18:13:00,
2013-10-11 14:18:00,65.2,50.2,29.89,East,90,0.0,1.6,58,0.00,,,0.00,WUHU21623XXSP,2013-10-11 18:18:00,
2013-10-11 14:23:00,65.2,49.7,29.89,East,90,0.0,0.0,57,0.00,,,0.00,WUHU21623XXSP,2013-10-11 18:23:00,
2013-10-11 14:28:00,65.2,48.7,29.89,ENE,67,0.0,0.0,55,0.00,,,0.00,WUHU21623XXSP,2013-10-11 18:28:00,
2013-10-11 14:33:00,65.4,48.9,29.89,NE,45,0.0,0.0,55,0.00,,,0.00,WUHU21623XXSP,2013-10-11 18:33:00,
2013-10-11 14:38:00,65.4,48.4,29.89,ENE,67,3.8,3.8,54,0.00,,,0.00,WUHU21623XXSP,2013-10-11 18:38:00,
2013-10-11 14:43:00,65.6,49.1,29.89,ENE,67,0.0,3.8,55,0.00,,,0.00,WUHU21623XXSP,2013-10-11 18:43:00,
2013-10-11 14:48:00,65.6,49.1,29.89,ENE,67,0.0,3.8,55,0.00,,,0.00,WUHU21623XXSP,2013-10-11 18:48:00,
2013-10-11 14:53:00,65.8,48.3,29.88,NE,45,0.0,0.0,53,0.00,,,0.00,WUHU21623XXSP,2013-10-11 18:53:00,
2013-10-11 14:58:00,66.0,47.9,29.88,ENE,67,0.0,0.0,52,0.00,,,0.00,WUHU21623XXSP,2013-10-11 18:58:00,
2013-10-11 15:03:00,66.0,48.5,29.88,ENE,67,3.4,3.4,53,0.00,,,0.00,WUHU21623XXSP,2013-10-11 19:03:00,
2013-10-11 15:08:00,66.1,47.0,29.88,NE,45,7.2,7.2,50,0.00,,,0.00,WUHU21623XXSP,2013-10-11 19:08:00,
2013-10-11 15:13:00,66.3,46.6,29.87,NE,45,6.5,7.2,49,0.00,,,0.00,WUHU21623XXSP,2013-10-11 19:13:00,
2013-10-11 15:19:00,66.3,46.6,29.88,NE,45,2.2,6.5,49,0.00,,,0.00,WUHU21623XXSP,2013-10-11 19:19:00,
2013-10-11 15:24:00,66.5,46.8,29.88,SE,135,0.0,2.2,49,0.00,,,0.00,WUHU21623XXSP,2013-10-11 19:24:00,
2013-10-11 15:37:00,66.7,47.0,29.87,ENE,67,0.0,0.0,49,0.00,,,0.00,WUHU21623XXSP,2013-10-11 19:37:00,
2013-10-11 15:42:00,66.7,47.5,29.87,ENE,67,0.0,0.0,50,0.00,,,0.00,WUHU21623XXSP,2013-10-11 19:42:00,
2013-10-11 15:47:00,66.7,47.5,29.87,NE,45,0.0,0.0,50,0.00,,,0.00,WUHU21623XXSP,2013-10-11 19:47:00,
2013-10-11 15:55:00,66.7,47.0,29.87,NE,45,0.0,0.0,49,0.00,,,0.00,WUHU21623XXSP,2013-10-11 19:55:00,
2013-10-11 16:00:00,66.9,47.1,29.87,NE,45,0.0,0.0,49,0.00,,,0.00,WUHU21623XXSP,2013-10-11 20:00:00,
2013-10-11 16:08:00,67.0,46.7,29.87,ENE,67,0.0,0.0,48,0.00,,,0.00,WUHU21623XXSP,2013-10-11 20:08:00,
2013-10-11 16:13:00,67.2,47.4,29.87,East,90,0.0,0.0,49,0.00,,,0.00,WUHU21623XXSP,2013-10-11 20:13:00,
2013-10-11 16:18:00,67.2,46.9,29.87,East,90,0.0,0.0,48,0.00,,,0.00,WUHU21623XXSP,2013-10-11 20:18:00,
2013-10-11 16:23:00,67.6,46.6,29.86,ENE,67,0.0,3.8,47,0.00,,,0.00,WUHU21623XXSP,2013-10-11 20:23:00,
2013-10-11 16:28:00,67.6,47.2,29.86,ENE,67,0.0,3.8,48,0.00,,,0.00,WUHU21623XXSP,2013-10-11 20:28:00,
2013-10-11 16:36:00,67.6,46.6,29.86,NNE,22,3.1,3.1,47,0.00,,,0.00,WUHU21623XXSP,2013-10-11 20:36:00,
2013-10-11 16:41:00,67.8,48.5,29.86,ENE,67,0.0,3.1,50,0.00,,,0.00,WUHU21623XXSP,2013-10-11 20:41:00,
2013-10-11 16:46:00,67.6,50.5,29.86,NE,45,3.4,3.4,54,0.00,,,0.00,WUHU21623XXSP,2013-10-11 20:46:00,
2013-10-11 16:51:00,67.2,51.1,29.86,NE,45,2.2,3.4,56,0.00,,,0.00,WUHU21623XXSP,2013-10-11 20:51:00,
2013-10-11 16:56:00,66.9,51.3,29.86,ENE,67,5.1,5.1,57,0.00,,,0.00,WUHU21623XXSP,2013-10-11 20:56:00,
2013-10-11 17:04:00,66.5,51.9,29.87,NE,45,2.7,5.1,59,0.00,,,0.00,WUHU21623XXSP,2013-10-11 21:04:00,
2013-10-11 17:10:00,66.3,52.2,29.87,NE,45,0.0,2.7,60,0.00,,,0.00,WUHU21623XXSP,2013-10-11 21:10:00,
2013-10-11 17:15:00,66.1,52.0,29.87,NE,45,0.0,0.0,60,0.00,,,0.00,WUHU21623XXSP,2013-10-11 21:15:00,
2013-10-11 17:25:00,65.8,52.1,29.87,ENE,67,0.0,0.0,61,0.00,,,0.00,WUHU21623XXSP,2013-10-11 21:25:00,
2013-10-11 17:30:00,65.4,52.2,29.87,NNE,22,0.0,0.0,62,0.00,,,0.00,WUHU21623XXSP,2013-10-11 21:30:00,
2013-10-11 17:35:00,65.2,52.0,29.87,ENE,67,0.0,0.0,62,0.00,,,0.00,WUHU21623XXSP,2013-10-11 21:35:00,
2013-10-11 17:40:00,65.1,52.4,29.88,ENE,67,5.8,5.8,63,0.00,,,0.00,WUHU21623XXSP,2013-10-11 21:40:00,
2013-10-11 17:45:00,65.1,52.4,29.87,East,90,0.0,5.8,63,0.00,,,0.00,WUHU21623XXSP,2013-10-11 21:45:00,
2013-10-11 17:50:00,64.5,51.8,29.87,ENE,67,0.0,0.0,63,0.00,,,0.00,WUHU21623XXSP,2013-10-11 21:50:00,
2013-10-11 17:55:00,64.5,52.2,29.86,ENE,67,0.0,0.0,64,0.00,,,0.00,WUHU21623XXSP,2013-10-11 21:55:00,
2013-10-11 18:02:00,63.8,52.0,29.87,NE,45,0.0,0.0,65,0.00,,,0.00,WUHU21623XXSP,2013-10-11 22:02:00,
2013-10-11 18:07:00,63.6,52.2,29.87,NE,45,6.0,6.0,66,0.00,,,0.00,WUHU21623XXSP,2013-10-11 22:07:00,
2013-10-11 18:12:00,63.4,52.0,29.87,NE,45,0.0,6.0,66,0.00,,,0.00,WUHU21623XXSP,2013-10-11 22:12:00,
2013-10-11 18:17:00,63.3,52.3,29.87,NE,45,0.0,0.0,67,0.00,,,0.00,WUHU21623XXSP,2013-10-11 22:17:00,
2013-10-11 18:23:00,62.7,52.1,29.87,East,90,0.0,0.0,68,0.00,,,0.00,WUHU21623XXSP,2013-10-11 22:23:00,
2013-10-11 18:28:00,62.5,52.3,29.87,NE,45,1.6,1.6,69,0.00,,,0.00,WUHU21623XXSP,2013-10-11 22:28:00,
2013-10-11 18:33:00,62.2,52.1,29.87,ENE,67,0.0,1.6,69,0.00,,,0.00,WUHU21623XXSP,2013-10-11 22:33:00,
2013-10-11 18:38:00,61.6,51.5,29.87,ESE,112,0.0,0.0,69,0.00,,,0.00,WUHU21623XXSP,2013-10-11 22:38:00,
2013-10-11 18:43:00,61.5,51.4,29.87,NE,45,0.0,0.0,69,0.00,,,0.00,WUHU21623XXSP,2013-10-11 22:43:00,
2013-10-11 18:48:00,60.9,50.8,29.87,ENE,67,0.0,0.0,69,0.00,,,0.00,WUHU21623XXSP,2013-10-11 22:48:00,
2013-10-11 18:53:00,60.4,50.3,29.86,ENE,67,0.0,0.0,69,0.00,,,0.00,WUHU21623XXSP,2013-10-11 22:53:00,
2013-10-11 19:19:00,58.9,49.3,29.87,ENE,67,0.0,0.0,70,0.00,,,0.00,WUHU21623XXSP,2013-10-11 23:19:00,
2013-10-11 19:38:00,57.3,48.1,29.87,ENE,67,0.0,0.0,71,0.00,,,0.00,WUHU21623XXSP,2013-10-11 23:38:00,
2013-10-11 19:43:00,57.3,48.5,29.87,ENE,67,0.0,0.0,72,0.00,,,0.00,WUHU21623XXSP,2013-10-11 23:43:00,
2013-10-11 20:00:00,56.4,48.0,29.86,ENE,67,0.0,0.0,73,0.00,,,0.00,WUHU21623XXSP,2013-10-12 00:00:00,
2013-10-11 20:21:00,55.5,47.4,29.86,ENE,67,0.0,0.0,74,0.00,,,0.00,WUHU21623XXSP,2013-10-12 00:21:00,
2013-10-11 20:27:00,55.0,47.3,29.86,ENE,67,0.0,0.0,75,0.00,,,0.00,WUHU21623XXSP,2013-10-12 00:27:00,
2013-10-11 20:32:00,55.0,47.7,29.86,ENE,67,0.0,0.0,76,0.00,,,0.00,WUHU21623XXSP,2013-10-12 00:32:00,
2013-10-11 20:37:00,54.6,47.3,29.86,ENE,67,0.0,0.0,76,0.00,,,0.00,WUHU21623XXSP,2013-10-12 00:37:00,
2013-10-11 21:10:00,53.4,47.1,29.86,ENE,67,0.0,0.0,79,0.00,,,0.00,WUHU21623XXSP,2013-10-12 01:10:00,
2013-10-11 21:15:00,53.2,46.9,29.87,ENE,67,0.0,0.0,79,0.00,,,0.00,WUHU21623XXSP,2013-10-12 01:15:00,
2013-10-11 21:21:00,53.0,46.7,29.87,ENE,67,0.0,0.0,79,0.00,,,0.00,WUHU21623XXSP,2013-10-12 01:21:00,
2013-10-11 21:26:00,52.8,46.8,29.86,ENE,67,0.0,0.0,80,0.00,,,0.00,WUHU21623XXSP,2013-10-12 01:26:00,
2013-10-11 21:31:00,52.8,46.8,29.87,ENE,67,0.0,0.0,80,0.00,,,0.00,WUHU21623XXSP,2013-10-12 01:31:00,
2013-10-11 21:36:00,52.8,47.2,29.87,ENE,67,0.0,0.0,81,0.00,,,0.00,WUHU21623XXSP,2013-10-12 01:36:00,
2013-10-11 21:41:00,52.6,47.0,29.87,ENE,67,0.0,0.0,81,0.00,,,0.00,WUHU21623XXSP,2013-10-12 01:41:00,
2013-10-11 21:46:00,52.5,46.9,29.87,ENE,67,0.0,0.0,81,0.00,,,0.00,WUHU21623XXSP,2013-10-12 01:46:00,
2013-10-11 21:51:00,52.3,46.7,29.86,ENE,67,0.0,0.0,81,0.00,,,0.00,WUHU21623XXSP,2013-10-12 01:51:00,
2013-10-11 22:02:00,51.9,46.6,29.87,ENE,67,0.0,0.0,82,0.00,,,0.00,WUHU21623XXSP,2013-10-12 02:02:00,
2013-10-11 22:07:00,51.7,46.4,29.87,ENE,67,0.0,0.0,82,0.00,,,0.00,WUHU21623XXSP,2013-10-12 02:07:00,
2013-10-11 22:12:00,51.7,46.4,29.87,ENE,67,0.0,0.0,82,0.00,,,0.00,WUHU21623XXSP,2013-10-12 02:12:00,
2013-10-11 23:08:00,50.5,45.5,29.87,ENE,67,0.0,0.0,83,0.00,,,0.00,WUHU21623XXSP,2013-10-12 03:08:00,
2013-10-11 23:17:00,50.3,45.3,29.87,ENE,67,0.0,0.0,83,0.00,,,0.00,WUHU21623XXSP,2013-10-12 03:17:00,
2013-10-11 23:22:00,50.1,45.1,29.87,ENE,67,0.0,0.0,83,0.00,,,0.00,WUHU21623XXSP,2013-10-12 03:22:00,
2013-10-11 23:27:00,50.1,45.1,29.87,ENE,67,0.0,0.0,83,0.00,,,0.00,WUHU21623XXSP,2013-10-12 03:27:00,
2013-10-11 23:42:00,49.6,44.3,29.87,ENE,67,0.0,0.0,82,0.00,,,0.00,WUHU21623XXSP,2013-10-12 03:42:00,
2013-10-11 23:51:00,49.4,44.2,29.87,ENE,67,0.0,0.0,82,0.00,,,0.00,WUHU21623XXSP,2013-10-12 03:51:00,